Flag for China Weather past 2 weeks in Dalian, Liaoning, China

Now
82 °F

Scattered clouds.


Feels Like: 84 °F
Forecast: 73 / 79 °F
Wind: 6 mph from Southeast

Location: Dalian Airport

Current Time: Aug 31, 2015 at 12:55:27 PM

Latest Report: Aug 31, 2015 at 12:00 PM


Visibility: N/A

Pressure: 29.89 "Hg

Humidity: 55%

Dew point: 64 °F

Location of DalianLocation

Historic Weather in Dalian — Graph

°F

Dalian temperature yesterday

Maximum temperature yesterday: 82 °F (at 10:30 AM)
Minimum temperature yesterday: 70 °F (at 3:30 AM)
Average temperature yesterday: 75 °F

Past Weeks' High & Low Weather Summary

 TemperatureHumidityPressure
High88 °F (Aug 16, 11:30 AM)94% (Aug 17, 6:00 AM)29.92 "Hg (Aug 17, 6:00 AM)
Low68 °F (Aug 21, 4:30 AM)40% (Aug 22, 12:00 PM)29.62 "Hg (Aug 21, 5:30 PM)
Average78 °F72%29.78 "Hg
* Reported Aug 16 11:00 AM — Aug 31 11:30 AM, Dalian, Weather by CustomWeather, © 2015

Note: Actual official high and low records may vary slightly from our data, if they occured in-between our weather recording intervals... More about our weather records

Advertising

Dalian weather history for previous 24 hours

 ConditionsComfort  
Time TempWeatherWind HumidityBarometerVisibility
11:30 AM
Mon, Aug 31
82 °FScattered clouds.8 mph55%29.89 "HgN/A
11:00 AM82 °FScattered clouds.8 mph55%29.92 "HgN/A
10:30 AM81 °FScattered clouds.8 mph54%29.92 "HgN/A
10:00 AM81 °FScattered clouds.3 mph54%29.92 "HgN/A
9:30 AM81 °FScattered clouds.3 mph58%29.92 "HgN/A
9:00 AM79 °FScattered clouds.3 mph58%29.92 "HgN/A
8:30 AM79 °FPassing clouds.3 mph65%29.92 "HgN/A
8:00 AM77 °FClear.1 mph74%29.92 "Hg4 mi
7:30 AM75 °FClear.1 mph78%29.89 "Hg4 mi
7:00 AM73 °FClear.No wind83%29.89 "Hg4 mi
6:30 AM70 °FClear.1 mph88%29.89 "Hg4 mi
6:00 AM68 °FClear.1 mph94%29.89 "Hg4 mi
5:30 AM68 °FClear.1 mph88%29.89 "Hg5 mi
5:00 AM68 °FClear.1 mph88%29.89 "Hg5 mi
4:30 AM68 °FClear.1 mph94%29.89 "Hg10 mi
3:30 AM68 °FClear.No wind94%29.89 "Hg10 mi
3:00 AM70 °FClear.1 mph88%29.89 "Hg10 mi
2:30 AM70 °FClear.1 mph88%29.89 "Hg10 mi
2:00 AM70 °FPassing clouds.3 mph88%29.89 "HgN/A
1:30 AM70 °FClear.1 mph88%29.89 "Hg10 mi
1:00 AM72 °FClear.1 mph83%29.89 "Hg10 mi
12:30 AM72 °FPassing clouds.3 mph83%29.89 "HgN/A
12:00 AM72 °FClear.1 mph83%29.89 "Hg10 mi
11:30 PM
Sun, Aug 30
72 °FClear.3 mph83%29.89 "Hg10 mi
11:00 PM72 °FPassing clouds.3 mph83%29.89 "HgN/A
10:30 PM72 °FClear.3 mph78%29.89 "Hg10 mi
10:00 PM72 °FClear.3 mph78%29.89 "Hg10 mi
9:30 PM72 °FClear.3 mph78%29.89 "Hg10 mi
9:00 PM72 °FClear.3 mph78%29.89 "Hg10 mi
8:30 PM73 °FClear.1 mph74%29.89 "Hg10 mi
8:00 PM73 °FPassing clouds.3 mph74%29.86 "HgN/A
7:30 PM73 °FClear.3 mph74%29.86 "Hg10 mi
7:00 PM75 °FPassing clouds.3 mph69%29.86 "HgN/A
6:30 PM75 °FClear.3 mph69%29.83 "Hg10 mi
6:00 PM77 °FPassing clouds.1 mph61%29.83 "HgN/A
5:30 PM79 °FPassing clouds.1 mph61%29.83 "HgN/A
5:00 PM79 °FPassing clouds.1 mph58%29.83 "HgN/A
4:30 PM77 °FScattered clouds.3 mph61%29.83 "HgN/A
4:00 PM77 °FScattered clouds.3 mph65%29.83 "HgN/A
3:30 PM75 °FSprinkles. Partly sunny.3 mph65%29.83 "HgN/A
3:00 PM77 °FThunderstorms. Partly sunny.10 mph65%29.83 "HgN/A
2:30 PM81 °FScattered clouds.6 mph58%29.83 "HgN/A
2:00 PM79 °FScattered clouds.3 mph61%29.83 "HgN/A
1:30 PM82 °FScattered clouds.3 mph51%29.86 "HgN/A
1:00 PM79 °FScattered clouds.6 mph58%29.86 "HgN/A
12:30 PM79 °FScattered clouds.8 mph58%29.86 "HgN/A
Weather by CustomWeather, © 2015

See weather overviewHow to use our weather pages